Retour au catalogue

STARLINK-5101

ActifCommunicationsVLEO
NORAD 54822·PAYLOAD·🇺🇸 United States

Lancé Dec 28, 2022 depuis Cape Canaveral Space Force Station

Loading…

Prochains Passages (prochaines 24 heures)

TLE

FraisSource: CelesTrak SupGP

Époque: Sep 15, 2026, 01:49 UTC

1 54822C 22177C   26258.07618056  .00026506  00000+0  96026-3 0  2588
2 54822  43.0005 146.6280 0000908 249.3108 202.8745 15.27558846    16

Suivez STARLINK-5101 en temps réel avec AllMySat

Download on the App Store